PGT6ML EDDF-LTFJ

Flight info

Callsign PGT6ML
Flight time 2h 35m
Altitude 35000
Route SULUS4D SULUS Z650 VEMUT DCT ETVIS DCT BUDWA DCT BUDEX DCT GIMBO DCT LADAG DCT BEGLA DCT TIMUR L606 ADORU UM19 IBODU
Aircraft A21N/M-SDE2E3FGHIJ1RWXY/LB1

Departure

Time 2026-04-18 07:02
Airport Frankfurt Main Airport (EDDF)

Arrival

Time 2026-04-18 09:37
Airport Istanbul Sabiha Gökçen International Airport (LTFJ)
Time Latitude Longitude Altitude Speed Heading
2026-04-18 06:49 50.03615 8.53793 344 ft 0 kts 160°
2026-04-18 06:54 50.03628 8.53785 345 ft 2 kts 160°
2026-04-18 06:54 50.03643 8.53777 346 ft 2 kts 168°
2026-04-18 06:54 50.03657 8.53777 346 ft 2 kts 193°
2026-04-18 06:55 50.03671 8.53786 347 ft 2 kts 216°
2026-04-18 06:55 50.03682 8.53802 347 ft 2 kts 238°
2026-04-18 06:55 50.03686 8.53815 347 ft 1 kts 251°
2026-04-18 06:55 50.03688 8.53824 347 ft 0 kts 252°
2026-04-18 06:56 50.03688 8.53822 347 ft 0 kts 252°
2026-04-18 06:56 50.03686 8.53817 347 ft 0 kts 253°
2026-04-18 06:57 50.03683 8.53801 347 ft 2 kts 253°
2026-04-18 06:57 50.03682 8.53796 347 ft 0 kts 253°
2026-04-18 06:59 50.03676 8.53765 347 ft 10 kts 253°
2026-04-18 07:00 50.03640 8.53607 346 ft 16 kts 241°
2026-04-18 07:00 50.03544 8.53511 344 ft 15 kts 204°
2026-04-18 07:00 50.03450 8.53449 340 ft 5 kts 203°
2026-04-18 07:00 50.03405 8.53459 339 ft 8 kts 154°
2026-04-18 07:01 50.03382 8.53481 338 ft 2 kts 147°
2026-04-18 07:01 50.03311 8.53579 336 ft 19 kts 131°
2026-04-18 07:01 50.03334 8.53765 335 ft 25 kts 64°
2026-04-18 07:01 50.03488 8.54386 333 ft 97 kts 70°
2026-04-18 07:02 50.03797 8.55691 343 ft 156 kts 70°
2026-04-18 07:02 50.04212 8.57463 527 ft 187 kts 70°
2026-04-18 07:02 50.04657 8.59417 1105 ft 194 kts 70°
2026-04-18 07:02 50.05088 8.61316 2051 ft 184 kts 71°
2026-04-18 07:03 50.05521 8.63230 2664 ft 193 kts 71°
2026-04-18 07:03 50.05982 8.65288 3080 ft 208 kts 71°
2026-04-18 07:03 50.06476 8.67504 3453 ft 227 kts 71°
2026-04-18 07:03 50.07001 8.69974 3861 ft 246 kts 77°
2026-04-18 07:04 50.07129 8.72631 4546 ft 253 kts 96°
2026-04-18 07:04 50.06867 8.75358 5070 ft 267 kts 101°
2026-04-18 07:04 50.06510 8.78246 5790 ft 273 kts 102°
2026-04-18 07:04 50.06156 8.81108 6569 ft 276 kts 102°
2026-04-18 07:05 50.05874 8.84098 7337 ft 280 kts 96°
2026-04-18 07:05 50.05796 8.87122 8087 ft 284 kts 90°
2026-04-18 07:05 50.05836 8.90146 8828 ft 287 kts 89°
2026-04-18 07:05 50.05895 8.93257 9574 ft 290 kts 89°
2026-04-18 07:06 50.05954 8.96390 10298 ft 293 kts 89°
2026-04-18 07:06 50.06010 8.99583 10733 ft 307 kts 89°
2026-04-18 07:06 50.06068 9.03005 11058 ft 324 kts 89°
2026-04-18 07:06 50.06126 9.06615 11370 ft 341 kts 89°
2026-04-18 07:07 50.06185 9.10366 11750 ft 354 kts 88°
2026-04-18 07:07 50.06244 9.14206 12361 ft 360 kts 88°
2026-04-18 07:07 50.06301 9.18070 13002 ft 364 kts 88°
2026-04-18 07:07 50.06358 9.22038 13633 ft 368 kts 88°
2026-04-18 07:08 50.06414 9.26044 14238 ft 373 kts 88°
2026-04-18 07:08 50.06469 9.30112 14848 ft 377 kts 88°
2026-04-18 07:08 50.06523 9.34157 15448 ft 381 kts 88°
2026-04-18 07:08 50.06576 9.38288 16037 ft 385 kts 88°
2026-04-18 07:09 50.06628 9.42435 16616 ft 388 kts 88°
2026-04-18 07:09 50.06679 9.46707 17196 ft 392 kts 88°
2026-04-18 07:09 50.06729 9.50930 17747 ft 395 kts 88°
2026-04-18 07:09 50.06778 9.55227 18278 ft 399 kts 88°
2026-04-18 07:10 50.06825 9.59525 18796 ft 403 kts 88°
2026-04-18 07:10 50.06870 9.63925 19330 ft 407 kts 88°
2026-04-18 07:10 50.06913 9.68324 19841 ft 410 kts 89°
2026-04-18 07:10 50.06956 9.72747 20358 ft 413 kts 89°
2026-04-18 07:11 50.06998 9.77183 20858 ft 416 kts 88°
2026-04-18 07:11 50.07040 9.81697 21336 ft 419 kts 88°
2026-04-18 07:11 50.07080 9.86266 21827 ft 422 kts 89°
2026-04-18 07:11 50.07117 9.90778 22300 ft 425 kts 89°
2026-04-18 07:12 50.07154 9.95411 22759 ft 427 kts 89°
2026-04-18 07:12 50.07187 9.99969 23193 ft 430 kts 89°
2026-04-18 07:12 50.07219 10.04656 23627 ft 433 kts 89°
2026-04-18 07:12 50.07251 10.09354 24052 ft 436 kts 89°
2026-04-18 07:13 50.07280 10.14072 24459 ft 439 kts 89°
2026-04-18 07:13 50.07305 10.18816 24857 ft 441 kts 89°
2026-04-18 07:13 50.07330 10.23573 25251 ft 444 kts 89°
2026-04-18 07:13 50.07356 10.28354 25631 ft 446 kts 88°
2026-04-18 07:14 50.07382 10.33195 26009 ft 449 kts 88°
2026-04-18 07:14 50.07407 10.38075 26370 ft 451 kts 88°
2026-04-18 07:14 50.07431 10.42948 26702 ft 454 kts 89°
2026-04-18 07:14 50.07452 10.47864 27021 ft 456 kts 89°
2026-04-18 07:15 50.07469 10.52761 27343 ft 458 kts 89°
2026-04-18 07:15 50.07483 10.57719 27671 ft 460 kts 89°
2026-04-18 07:15 50.07496 10.62701 27982 ft 462 kts 89°
2026-04-18 07:15 50.07464 10.67712 28248 ft 465 kts 92°
2026-04-18 07:16 50.07148 10.72681 28529 ft 467 kts 98°
2026-04-18 07:16 50.06495 10.77650 28808 ft 469 kts 105°
2026-04-18 07:16 50.05557 10.82503 29080 ft 471 kts 108°
2026-04-18 07:16 50.04528 10.87341 29386 ft 471 kts 109°
2026-04-18 07:17 50.03490 10.92133 29749 ft 471 kts 109°
2026-04-18 07:17 50.02453 10.96936 30116 ft 470 kts 109°
2026-04-18 07:17 50.01429 11.01712 30458 ft 469 kts 109°
2026-04-18 07:17 50.00401 11.06528 30806 ft 469 kts 109°
2026-04-18 07:18 49.99374 11.11343 31145 ft 468 kts 109°
2026-04-18 07:18 49.98348 11.16139 31496 ft 467 kts 108°
2026-04-18 07:18 49.97330 11.20890 31835 ft 466 kts 108°
2026-04-18 07:18 49.96308 11.25673 32158 ft 465 kts 108°
2026-04-18 07:19 49.95311 11.30387 32463 ft 464 kts 108°
2026-04-18 07:19 49.94299 11.35159 32750 ft 464 kts 108°
2026-04-18 07:19 49.93296 11.39893 33017 ft 464 kts 108°
2026-04-18 07:19 49.92389 11.44643 33287 ft 463 kts 105°
2026-04-18 07:20 49.91500 11.49487 33530 ft 463 kts 105°
2026-04-18 07:20 49.90630 11.54245 33743 ft 464 kts 105°
2026-04-18 07:20 49.89740 11.59102 33938 ft 465 kts 105°
2026-04-18 07:20 49.88874 11.63887 34094 ft 466 kts 103°
2026-04-18 07:21 49.88141 11.68803 34218 ft 468 kts 101°
2026-04-18 07:21 49.87599 11.73739 34369 ft 469 kts 97°
2026-04-18 07:21 49.87156 11.78722 34551 ft 469 kts 97°
2026-04-18 07:21 49.86729 11.83695 34696 ft 470 kts 97°
2026-04-18 07:22 49.86294 11.88728 34826 ft 470 kts 97°
2026-04-18 07:22 49.85859 11.93672 34972 ft 470 kts 97°
2026-04-18 07:22 49.85406 11.98733 35130 ft 470 kts 97°
2026-04-18 07:22 49.84958 12.03711 35180 ft 471 kts 97°
2026-04-18 07:23 49.84049 12.13740 35187 ft 471 kts 96°
2026-04-18 07:23 49.83141 12.23688 35186 ft 470 kts 97°
2026-04-18 07:24 49.82192 12.33673 35188 ft 471 kts 98°
2026-04-18 07:24 49.80551 12.43444 35186 ft 473 kts 108°
2026-04-18 07:25 49.77913 12.52754 35187 ft 474 kts 117°
2026-04-18 07:25 49.74421 12.61332 35193 ft 474 kts 124°
2026-04-18 07:26 49.70710 12.69681 35190 ft 474 kts 124°
2026-04-18 07:26 49.66997 12.78065 35189 ft 474 kts 124°
2026-04-18 07:27 49.63309 12.86405 35186 ft 475 kts 124°
2026-04-18 07:27 49.59576 12.94796 35183 ft 475 kts 124°
2026-04-18 07:28 49.55837 13.03166 35186 ft 475 kts 124°
2026-04-18 07:28 49.52112 13.11489 35192 ft 475 kts 124°
2026-04-18 07:29 49.48363 13.19840 35200 ft 475 kts 123°
2026-04-18 07:29 49.44629 13.28131 35190 ft 476 kts 123°
2026-04-18 07:30 49.40863 13.36463 35187 ft 477 kts 123°
2026-04-18 07:30 49.37085 13.44803 35186 ft 477 kts 123°
2026-04-18 07:31 49.33302 13.53126 35187 ft 478 kts 123°
2026-04-18 07:31 49.29518 13.61417 35187 ft 477 kts 123°
2026-04-18 07:32 49.25648 13.69681 35188 ft 477 kts 124°
2026-04-18 07:32 49.21753 13.77814 35190 ft 478 kts 124°
2026-04-18 07:33 49.17824 13.86015 35188 ft 478 kts 124°
2026-04-18 07:33 49.13909 13.94174 35189 ft 478 kts 124°
2026-04-18 07:34 49.09983 14.02333 35189 ft 478 kts 124°
2026-04-18 07:34 49.06058 14.10460 35189 ft 479 kts 124°
2026-04-18 07:35 49.02139 14.18555 35185 ft 478 kts 124°
2026-04-18 07:35 48.98196 14.26687 35182 ft 479 kts 124°
2026-04-18 07:36 48.94243 14.34794 35186 ft 479 kts 124°
2026-04-18 07:36 48.90197 14.42835 35191 ft 479 kts 125°
2026-04-18 07:37 48.86132 14.50846 35188 ft 480 kts 124°
2026-04-18 07:37 48.82078 14.58839 35186 ft 480 kts 124°
2026-04-18 07:38 48.78020 14.66828 35182 ft 480 kts 125°
2026-04-18 07:38 48.73943 14.74822 35181 ft 480 kts 125°
2026-04-18 07:39 48.69881 14.82761 35192 ft 480 kts 125°
2026-04-18 07:39 48.65804 14.90701 35184 ft 480 kts 124°
2026-04-18 07:40 48.61708 14.98655 35198 ft 480 kts 124°
2026-04-18 07:40 48.57968 15.06877 35193 ft 476 kts 117°
2026-04-18 07:41 48.54811 15.15570 35183 ft 473 kts 113°
2026-04-18 07:41 48.51750 15.24294 35207 ft 473 kts 113°
2026-04-18 07:42 48.48648 15.33075 35189 ft 475 kts 113°
2026-04-18 07:42 48.45548 15.41800 35194 ft 475 kts 113°
2026-04-18 07:43 48.42414 15.50560 35188 ft 475 kts 112°
2026-04-18 07:43 48.39313 15.59220 35202 ft 474 kts 112°
2026-04-18 07:44 48.36172 15.67968 35197 ft 475 kts 114°
2026-04-18 07:44 48.33038 15.76659 35188 ft 475 kts 114°
2026-04-18 07:45 48.29902 15.85318 35204 ft 474 kts 113°
2026-04-18 07:45 48.26755 15.93987 35204 ft 475 kts 113°
2026-04-18 07:46 48.23605 16.02635 35199 ft 475 kts 112°
2026-04-18 07:46 48.20427 16.11339 35200 ft 475 kts 113°
2026-04-18 07:47 48.17267 16.19958 35208 ft 475 kts 112°
2026-04-18 07:47 48.14102 16.28549 35210 ft 474 kts 112°
2026-04-18 07:48 48.10917 16.37185 35215 ft 474 kts 112°
2026-04-18 07:48 48.07745 16.45756 35220 ft 474 kts 112°
2026-04-18 07:49 48.04539 16.54380 35223 ft 475 kts 112°
2026-04-18 07:49 48.01349 16.62946 35219 ft 474 kts 112°
2026-04-18 07:50 47.98145 16.71516 35224 ft 474 kts 113°
2026-04-18 07:50 47.94932 16.80079 35228 ft 474 kts 112°
2026-04-18 07:51 47.91724 16.88609 35214 ft 475 kts 112°
2026-04-18 07:51 47.88488 16.97175 35199 ft 474 kts 112°
2026-04-18 07:52 47.85274 17.05669 35198 ft 473 kts 112°
2026-04-18 07:52 47.81767 17.13995 35181 ft 479 kts 118°
2026-04-18 07:53 47.77787 17.21853 35182 ft 481 kts 120°
2026-04-18 07:53 47.73707 17.29778 35179 ft 481 kts 120°
2026-04-18 07:54 47.69667 17.37621 35183 ft 481 kts 120°
2026-04-18 07:54 47.65630 17.45454 35195 ft 481 kts 120°
2026-04-18 07:55 47.61576 17.53299 35186 ft 481 kts 120°
2026-04-18 07:55 47.57524 17.61112 35205 ft 480 kts 120°
2026-04-18 07:56 47.53471 17.68913 35212 ft 480 kts 121°
2026-04-18 07:56 47.49385 17.76751 35212 ft 481 kts 120°
2026-04-18 07:57 47.45322 17.84527 35210 ft 480 kts 121°
2026-04-18 07:57 47.41245 17.92304 35199 ft 480 kts 120°
2026-04-18 07:58 47.35107 18.03971 35180 ft 480 kts 120°
2026-04-18 07:59 47.31036 18.11680 35179 ft 480 kts 120°
2026-04-18 07:59 47.26948 18.19403 35172 ft 479 kts 120°
2026-04-18 08:00 47.22877 18.27071 35168 ft 478 kts 120°
2026-04-18 08:00 47.18779 18.34767 35179 ft 479 kts 120°
2026-04-18 08:01 47.14708 18.42391 35177 ft 478 kts 120°
2026-04-18 08:01 47.10614 18.50042 35174 ft 477 kts 120°
2026-04-18 08:02 47.06525 18.57660 35180 ft 477 kts 120°
2026-04-18 08:02 47.02405 18.65313 35175 ft 478 kts 121°
2026-04-18 08:03 46.98283 18.72950 35174 ft 477 kts 121°
2026-04-18 08:03 46.94190 18.80513 35174 ft 477 kts 122°
2026-04-18 08:04 46.90062 18.88112 35178 ft 477 kts 121°
2026-04-18 08:04 46.85966 18.95639 35170 ft 477 kts 122°
2026-04-18 08:05 46.81850 19.03181 35173 ft 477 kts 121°
2026-04-18 08:05 46.77709 19.10749 35173 ft 477 kts 122°
2026-04-18 08:06 46.73611 19.18218 35175 ft 475 kts 122°
2026-04-18 08:06 46.69489 19.25707 35169 ft 474 kts 122°
2026-04-18 08:07 46.65380 19.33158 35164 ft 474 kts 122°
2026-04-18 08:07 46.61258 19.40608 35164 ft 473 kts 123°
2026-04-18 08:08 46.57137 19.48027 35167 ft 475 kts 123°
2026-04-18 08:08 46.53015 19.55443 35154 ft 473 kts 123°
2026-04-18 08:09 46.48890 19.62836 35159 ft 472 kts 123°
2026-04-18 08:09 46.44770 19.70210 35131 ft 472 kts 124°
2026-04-18 08:10 46.40642 19.77566 35151 ft 471 kts 124°
2026-04-18 08:10 46.36525 19.84887 35145 ft 471 kts 124°
2026-04-18 08:11 46.32410 19.92197 35145 ft 470 kts 125°
2026-04-18 08:11 46.28271 19.99509 35130 ft 471 kts 124°
2026-04-18 08:12 46.24113 20.06846 35146 ft 471 kts 125°
2026-04-18 08:12 46.19986 20.14109 35206 ft 470 kts 125°
2026-04-18 08:13 46.15852 20.21366 35160 ft 468 kts 125°
2026-04-18 08:13 46.11734 20.28575 35136 ft 468 kts 125°
2026-04-18 08:14 46.07623 20.35754 35147 ft 468 kts 125°
2026-04-18 08:14 46.03481 20.42971 35131 ft 468 kts 125°
2026-04-18 08:15 45.99323 20.50195 35128 ft 469 kts 125°
2026-04-18 08:15 45.95184 20.57366 35108 ft 468 kts 125°
2026-04-18 08:16 45.91040 20.64529 35117 ft 468 kts 125°
2026-04-18 08:16 45.86888 20.71681 35137 ft 468 kts 126°
2026-04-18 08:17 45.82722 20.78847 35114 ft 467 kts 126°
2026-04-18 08:17 45.78596 20.85922 35130 ft 468 kts 126°
2026-04-18 08:18 45.74437 20.93038 35104 ft 468 kts 126°
2026-04-18 08:18 45.70241 21.00201 35142 ft 469 kts 126°
2026-04-18 08:19 45.66063 21.07311 35113 ft 468 kts 126°
2026-04-18 08:19 45.61899 21.14379 35067 ft 468 kts 126°
2026-04-18 08:20 45.57710 21.21471 35090 ft 469 kts 126°
2026-04-18 08:20 45.53519 21.28549 35116 ft 468 kts 126°
2026-04-18 08:21 45.49331 21.35603 35088 ft 468 kts 126°
2026-04-18 08:21 45.45119 21.42687 35062 ft 469 kts 126°
2026-04-18 08:22 45.40922 21.49721 35095 ft 468 kts 126°
2026-04-18 08:22 45.36705 21.56771 35073 ft 469 kts 126°
2026-04-18 08:23 45.32489 21.63803 35069 ft 470 kts 126°
2026-04-18 08:23 45.28254 21.70849 35056 ft 470 kts 127°
2026-04-18 08:24 45.24023 21.77872 35065 ft 470 kts 127°
2026-04-18 08:24 45.19792 21.84874 35064 ft 471 kts 127°
2026-04-18 08:25 45.15519 21.91929 35055 ft 472 kts 127°
2026-04-18 08:25 45.11244 21.98972 35033 ft 472 kts 127°
2026-04-18 08:26 45.06990 22.05963 35040 ft 472 kts 128°
2026-04-18 08:26 45.02714 22.12963 35039 ft 471 kts 127°
2026-04-18 08:27 44.98431 22.19966 35026 ft 470 kts 127°
2026-04-18 08:27 44.94184 22.26897 35022 ft 472 kts 128°
2026-04-18 08:28 44.89885 22.33890 34999 ft 472 kts 128°
2026-04-18 08:28 44.85584 22.40869 35029 ft 472 kts 128°
2026-04-18 08:29 44.81296 22.47814 35020 ft 472 kts 128°
2026-04-18 08:29 44.76995 22.54751 35050 ft 472 kts 128°
2026-04-18 08:30 44.72682 22.61701 35038 ft 472 kts 128°
2026-04-18 08:30 44.68373 22.68625 35025 ft 472 kts 129°
2026-04-18 08:31 44.64051 22.75550 35042 ft 472 kts 129°
2026-04-18 08:31 44.59723 22.82476 35014 ft 472 kts 129°
2026-04-18 08:32 44.55400 22.89361 35029 ft 473 kts 129°
2026-04-18 08:32 44.51082 22.96237 35008 ft 472 kts 129°
2026-04-18 08:33 44.46738 23.03134 35014 ft 473 kts 130°
2026-04-18 08:33 44.42387 23.10017 35020 ft 473 kts 129°
2026-04-18 08:34 44.38045 23.16873 35014 ft 472 kts 129°
2026-04-18 08:34 44.33697 23.23723 35020 ft 473 kts 129°
2026-04-18 08:35 44.29342 23.30577 35022 ft 472 kts 130°
2026-04-18 08:35 44.25000 23.37382 35026 ft 473 kts 130°
2026-04-18 08:36 44.20648 23.44187 35031 ft 473 kts 130°
2026-04-18 08:36 44.16284 23.50996 35017 ft 473 kts 130°
2026-04-18 08:37 44.11888 23.57836 35063 ft 472 kts 130°
2026-04-18 08:37 44.07545 23.64585 35045 ft 471 kts 130°
2026-04-18 08:38 44.03175 23.71356 35050 ft 471 kts 131°
2026-04-18 08:38 43.98788 23.78139 35025 ft 471 kts 131°
2026-04-18 08:39 43.94423 23.84866 35055 ft 472 kts 131°
2026-04-18 08:39 43.90027 23.91629 35013 ft 472 kts 131°
2026-04-18 08:40 43.85651 23.98346 35041 ft 472 kts 131°
2026-04-18 08:40 43.81261 24.05062 35010 ft 472 kts 131°
2026-04-18 08:41 43.76867 24.11776 35034 ft 471 kts 131°
2026-04-18 08:41 43.72444 24.18512 35020 ft 471 kts 131°
2026-04-18 08:42 43.68003 24.25107 35015 ft 471 kts 135°
2026-04-18 08:42 43.63300 24.31403 35035 ft 472 kts 136°
2026-04-18 08:43 43.58549 24.37715 35021 ft 472 kts 136°
2026-04-18 08:43 43.53837 24.43979 35025 ft 472 kts 136°
2026-04-18 08:44 43.49113 24.50244 35053 ft 472 kts 136°
2026-04-18 08:44 43.44419 24.56451 35039 ft 471 kts 136°
2026-04-18 08:45 43.39704 24.62675 35042 ft 471 kts 136°
2026-04-18 08:45 43.34990 24.68889 34990 ft 472 kts 137°
2026-04-18 08:46 43.30235 24.75138 35022 ft 472 kts 137°
2026-04-18 08:46 43.25518 24.81323 35045 ft 472 kts 137°
2026-04-18 08:47 43.20775 24.87534 35032 ft 471 kts 137°
2026-04-18 08:47 43.16029 24.93721 35027 ft 472 kts 137°
2026-04-18 08:48 43.11287 24.99900 35035 ft 471 kts 137°
2026-04-18 08:48 43.06527 25.06093 35028 ft 471 kts 137°
2026-04-18 08:49 43.01770 25.12273 35034 ft 471 kts 137°
2026-04-18 08:49 42.97055 25.18385 35023 ft 471 kts 137°
2026-04-18 08:50 42.92309 25.24518 35039 ft 471 kts 137°
2026-04-18 08:50 42.87535 25.30673 35017 ft 470 kts 137°
2026-04-18 08:51 42.82787 25.36786 35002 ft 470 kts 138°
2026-04-18 08:51 42.78074 25.42834 35005 ft 470 kts 137°
2026-04-18 08:52 42.73324 25.48923 34993 ft 469 kts 138°
2026-04-18 08:52 42.68581 25.54989 34989 ft 469 kts 138°
2026-04-18 08:53 42.63850 25.61027 34989 ft 468 kts 138°
2026-04-18 08:53 42.59105 25.67066 34985 ft 468 kts 139°
2026-04-18 08:54 42.54373 25.73075 34998 ft 468 kts 139°
2026-04-18 08:54 42.49615 25.79100 35003 ft 469 kts 139°
2026-04-18 08:55 42.44844 25.85139 35012 ft 467 kts 140°
2026-04-18 08:55 42.40099 25.91119 35012 ft 467 kts 139°
2026-04-18 08:56 42.35376 25.97073 35012 ft 466 kts 140°
2026-04-18 08:56 42.30629 26.03034 35013 ft 465 kts 140°
2026-04-18 08:57 42.23547 26.11901 35005 ft 465 kts 140°
2026-04-18 08:57 42.18794 26.17816 35002 ft 465 kts 140°
2026-04-18 08:58 42.14061 26.23686 35002 ft 465 kts 140°
2026-04-18 08:58 42.09314 26.29569 34995 ft 464 kts 140°
2026-04-18 08:59 42.04565 26.35438 34996 ft 464 kts 140°
2026-04-18 08:59 42.02217 26.38338 34892 ft 463 kts 141°
2026-04-18 08:59 41.99849 26.41258 35047 ft 464 kts 141°
2026-04-18 09:00 41.95108 26.47090 35006 ft 463 kts 141°
2026-04-18 09:00 41.92716 26.50028 34881 ft 462 kts 140°
2026-04-18 09:00 41.90362 26.52916 35016 ft 463 kts 140°
2026-04-18 09:01 41.85812 26.59061 34971 ft 467 kts 134°
2026-04-18 09:01 41.81668 26.65705 35021 ft 467 kts 133°
2026-04-18 09:02 41.77531 26.72422 35034 ft 467 kts 133°
2026-04-18 09:02 41.73411 26.79080 34982 ft 467 kts 133°
2026-04-18 09:03 41.69252 26.85777 35009 ft 467 kts 133°
2026-04-18 09:03 41.65105 26.92433 35032 ft 467 kts 133°
2026-04-18 09:04 41.60959 26.99079 34996 ft 467 kts 133°
2026-04-18 09:04 41.56799 27.05732 34980 ft 466 kts 134°
2026-04-18 09:05 41.52370 27.12131 34546 ft 468 kts 138°
2026-04-18 09:05 41.50099 27.15236 33901 ft 470 kts 138°
2026-04-18 09:05 41.47810 27.18353 33116 ft 473 kts 138°
2026-04-18 09:06 41.45513 27.21478 32364 ft 475 kts 138°
2026-04-18 09:06 41.43236 27.24574 31637 ft 475 kts 138°
2026-04-18 09:06 41.40916 27.27736 30920 ft 474 kts 138°
2026-04-18 09:06 41.38631 27.30844 30165 ft 474 kts 137°
2026-04-18 09:07 41.36320 27.33981 29333 ft 474 kts 137°
2026-04-18 09:07 41.34031 27.37085 28444 ft 475 kts 137°
2026-04-18 09:07 41.31728 27.40210 27703 ft 473 kts 137°
2026-04-18 09:07 41.29425 27.43334 27082 ft 468 kts 136°
2026-04-18 09:08 41.27162 27.46397 26525 ft 462 kts 136°
2026-04-18 09:08 41.25020 27.49425 26302 ft 450 kts 131°
2026-04-18 09:08 41.23234 27.52823 26059 ft 441 kts 122°
2026-04-18 09:08 41.21919 27.56437 25658 ft 435 kts 113°
2026-04-18 09:09 41.20837 27.60139 25282 ft 428 kts 111°
2026-04-18 09:09 41.19812 27.63794 24724 ft 426 kts 111°
2026-04-18 09:09 41.18776 27.67471 24141 ft 423 kts 112°
2026-04-18 09:09 41.17741 27.71100 23641 ft 419 kts 112°
2026-04-18 09:10 41.16700 27.74713 23173 ft 415 kts 112°
2026-04-18 09:10 41.15671 27.78258 22698 ft 410 kts 112°
2026-04-18 09:10 41.14655 27.81747 22234 ft 407 kts 112°
2026-04-18 09:10 41.13633 27.85245 21717 ft 404 kts 111°
2026-04-18 09:11 41.12626 27.88695 21267 ft 400 kts 111°
2026-04-18 09:11 41.11633 27.92093 20781 ft 397 kts 111°
2026-04-18 09:11 41.10636 27.95498 20333 ft 394 kts 111°
2026-04-18 09:11 41.09660 27.98831 19884 ft 390 kts 111°
2026-04-18 09:12 41.08677 28.02177 19423 ft 387 kts 110°
2026-04-18 09:12 41.07700 28.05500 18964 ft 384 kts 110°
2026-04-18 09:12 41.06737 28.08767 18602 ft 378 kts 110°
2026-04-18 09:12 41.05801 28.11943 18432 ft 366 kts 110°
2026-04-18 09:13 41.04880 28.15017 18273 ft 355 kts 112°
2026-04-18 09:13 41.03512 28.17666 17984 ft 349 kts 138°
2026-04-18 09:13 41.01445 28.19219 17652 ft 343 kts 165°
2026-04-18 09:13 40.99098 28.19840 17279 ft 340 kts 172°
2026-04-18 09:14 40.96788 28.20278 16899 ft 337 kts 172°
2026-04-18 09:14 40.94483 28.20743 16547 ft 336 kts 171°
2026-04-18 09:14 40.92170 28.21267 16176 ft 335 kts 169°
2026-04-18 09:14 40.89884 28.21826 15765 ft 333 kts 168°
2026-04-18 09:15 40.87613 28.22404 15389 ft 331 kts 168°
2026-04-18 09:15 40.85344 28.22993 15012 ft 330 kts 168°
2026-04-18 09:15 40.83106 28.23575 14624 ft 328 kts 167°
2026-04-18 09:15 40.80865 28.24159 14258 ft 326 kts 167°
2026-04-18 09:16 40.78681 28.24833 13867 ft 324 kts 161°
2026-04-18 09:16 40.76588 28.25892 13510 ft 320 kts 152°
2026-04-18 09:16 40.74615 28.27196 13157 ft 317 kts 149°
2026-04-18 09:16 40.72661 28.28556 12803 ft 315 kts 149°
2026-04-18 09:17 40.70753 28.29881 12441 ft 313 kts 149°
2026-04-18 09:17 40.68919 28.31387 12038 ft 307 kts 131°
2026-04-18 09:17 40.67837 28.33661 11769 ft 291 kts 100°
2026-04-18 09:17 40.67634 28.36285 11799 ft 288 kts 85°
2026-04-18 09:18 40.67640 28.38918 11810 ft 288 kts 85°
2026-04-18 09:18 40.67627 28.41559 11547 ft 287 kts 85°
2026-04-18 09:18 40.67592 28.44203 11177 ft 285 kts 86°
2026-04-18 09:18 40.67542 28.46780 10826 ft 282 kts 86°
2026-04-18 09:19 40.67488 28.49336 10488 ft 279 kts 86°
2026-04-18 09:19 40.67433 28.51884 10161 ft 277 kts 86°
2026-04-18 09:19 40.67376 28.54427 9925 ft 274 kts 86°
2026-04-18 09:19 40.67320 28.56942 9928 ft 274 kts 86°
2026-04-18 09:20 40.67263 28.59450 9718 ft 269 kts 86°
2026-04-18 09:20 40.67199 28.61847 9229 ft 265 kts 88°
2026-04-18 09:20 40.66669 28.64192 8922 ft 276 kts 119°
2026-04-18 09:20 40.65178 28.65848 8901 ft 290 kts 148°
2026-04-18 09:21 40.63368 28.66989 8954 ft 281 kts 149°
2026-04-18 09:21 40.61615 28.68115 8969 ft 277 kts 148°
2026-04-18 09:21 40.59930 28.69285 8944 ft 275 kts 143°
2026-04-18 09:21 40.58398 28.70790 8920 ft 269 kts 132°
2026-04-18 09:22 40.57056 28.72484 8924 ft 268 kts 129°
2026-04-18 09:22 40.55752 28.74213 8909 ft 268 kts 129°
2026-04-18 09:22 40.54434 28.75963 8908 ft 268 kts 129°
2026-04-18 09:22 40.53177 28.77765 8898 ft 264 kts 121°
2026-04-18 09:23 40.52182 28.79751 8887 ft 259 kts 113°
2026-04-18 09:23 40.51323 28.81826 8891 ft 258 kts 111°
2026-04-18 09:23 40.50483 28.83917 8897 ft 258 kts 111°
2026-04-18 09:23 40.49646 28.85990 8902 ft 259 kts 111°
2026-04-18 09:24 40.48896 28.88117 8896 ft 255 kts 103°
2026-04-18 09:24 40.48426 28.90319 8888 ft 251 kts 96°
2026-04-18 09:24 40.48078 28.92571 8878 ft 250 kts 95°
2026-04-18 09:24 40.47747 28.94817 8891 ft 250 kts 95°
2026-04-18 09:25 40.47414 28.97048 8898 ft 250 kts 95°
2026-04-18 09:25 40.47163 28.99304 8890 ft 247 kts 88°
2026-04-18 09:25 40.47187 29.01538 8888 ft 243 kts 80°
2026-04-18 09:25 40.47345 29.03752 8884 ft 243 kts 79°
2026-04-18 09:26 40.47520 29.05957 8875 ft 242 kts 77°
2026-04-18 09:26 40.48023 29.07978 8832 ft 234 kts 52°
2026-04-18 09:26 40.49220 29.09403 8851 ft 232 kts 27°
2026-04-18 09:26 40.50771 29.09940 8869 ft 235 kts
2026-04-18 09:27 40.52415 29.09593 8695 ft 241 kts 351°
2026-04-18 09:27 40.54055 29.09055 8409 ft 238 kts 350°
2026-04-18 09:27 40.55660 29.08525 8156 ft 236 kts 350°
2026-04-18 09:27 40.57235 29.08006 7875 ft 235 kts 350°
2026-04-18 09:28 40.58812 29.07488 7555 ft 233 kts 350°
2026-04-18 09:28 40.60403 29.06967 7257 ft 232 kts 351°
2026-04-18 09:28 40.61991 29.06447 6953 ft 231 kts 351°
2026-04-18 09:28 40.63540 29.05941 6648 ft 229 kts 351°
2026-04-18 09:29 40.65081 29.05437 6362 ft 227 kts 351°
2026-04-18 09:29 40.66606 29.04940 6078 ft 226 kts 350°
2026-04-18 09:29 40.68142 29.04438 5788 ft 225 kts 351°
2026-04-18 09:29 40.69647 29.03945 5510 ft 223 kts 350°
2026-04-18 09:30 40.71158 29.03450 5218 ft 222 kts 350°
2026-04-18 09:30 40.72660 29.02959 4916 ft 220 kts 350°
2026-04-18 09:30 40.74131 29.02478 4619 ft 219 kts 350°
2026-04-18 09:30 40.75614 29.02029 4322 ft 217 kts 357°
2026-04-18 09:31 40.77041 29.02354 4160 ft 202 kts 29°
2026-04-18 09:31 40.78073 29.03588 3949 ft 200 kts 54°
2026-04-18 09:31 40.78788 29.05108 3726 ft 191 kts 56°
2026-04-18 09:31 40.79485 29.06567 3427 ft 186 kts 55°
2026-04-18 09:32 40.80152 29.07983 3162 ft 179 kts 56°
2026-04-18 09:32 40.80761 29.09382 3010 ft 165 kts 58°
2026-04-18 09:32 40.81265 29.10637 2970 ft 146 kts 59°
2026-04-18 09:32 40.81723 29.11827 2989 ft 146 kts 59°
2026-04-18 09:33 40.82184 29.13055 3032 ft 145 kts 60°
2026-04-18 09:33 40.82624 29.14246 2924 ft 145 kts 60°
2026-04-18 09:33 40.83064 29.15451 2739 ft 139 kts 61°
2026-04-18 09:33 40.83473 29.16575 2537 ft 135 kts 60°
2026-04-18 09:34 40.83877 29.17685 2365 ft 134 kts 59°
2026-04-18 09:34 40.84280 29.18792 2188 ft 133 kts 59°
2026-04-18 09:34 40.84680 29.19886 2018 ft 133 kts 60°
2026-04-18 09:34 40.85084 29.20992 1846 ft 133 kts 60°
2026-04-18 09:35 40.85485 29.22088 1676 ft 132 kts 60°
2026-04-18 09:35 40.85880 29.23171 1501 ft 132 kts 59°
2026-04-18 09:35 40.86279 29.24257 1318 ft 131 kts 59°
2026-04-18 09:35 40.86678 29.25346 1142 ft 131 kts 60°
2026-04-18 09:36 40.87077 29.26431 964 ft 129 kts 60°
2026-04-18 09:36 40.87464 29.27490 788 ft 128 kts 60°
2026-04-18 09:36 40.87846 29.28534 630 ft 128 kts 61°
2026-04-18 09:36 40.88210 29.29609 520 ft 127 kts 59°
2026-04-18 09:37 40.88621 29.30645 362 ft 127 kts 59°
2026-04-18 09:37 40.89013 29.31651 321 ft 109 kts 63°
2026-04-18 09:37 40.89264 29.32357 321 ft 58 kts 64°
2026-04-18 09:37 40.89377 29.32630 321 ft 8 kts 54°
2026-04-18 09:38 40.89380 29.32635 321 ft 0 kts 53°
2026-04-18 09:38 40.89453 29.32760 321 ft 22 kts 50°
2026-04-18 09:38 40.89556 29.32878 321 ft 18 kts 24°
2026-04-18 09:38 40.89615 29.32786 321 ft 16 kts 250°
2026-04-18 09:39 40.89568 29.32650 321 ft 16 kts 244°
2026-04-18 09:39 40.89520 29.32517 321 ft 16 kts 245°
2026-04-18 09:39 40.89473 29.32380 321 ft 16 kts 246°
2026-04-18 09:39 40.89512 29.32326 321 ft 9 kts 18°
2026-04-18 09:40 40.89578 29.32299 321 ft 10 kts 335°
2026-04-18 09:40 40.89645 29.32259 321 ft 11 kts 336°
2026-04-18 09:40 40.89718 29.32218 321 ft 11 kts 338°
2026-04-18 09:40 40.89797 29.32178 321 ft 12 kts 340°
2026-04-18 09:41 40.89870 29.32124 321 ft 12 kts 328°
2026-04-18 09:41 40.89946 29.32066 321 ft 12 kts 332°
2026-04-18 09:41 40.90025 29.32011 321 ft 13 kts 333°
2026-04-18 09:41 40.90107 29.31959 321 ft 12 kts 335°
2026-04-18 09:42 40.90165 29.31965 321 ft 6 kts 80°
2026-04-18 09:42 40.90157 29.32057 321 ft 14 kts 96°
2026-04-18 09:42 40.90147 29.32212 321 ft 9 kts 94°
2026-04-18 09:42 40.90173 29.32290 321 ft 9 kts 58°
2026-04-18 09:43 40.90205 29.32360 321 ft 3 kts 58°
2026-04-18 09:43 40.90219 29.32389 321 ft 5 kts 58°
2026-04-18 09:43 40.90270 29.32515 321 ft 17 kts 62°
2026-04-18 09:43 40.90370 29.32545 321 ft 16 kts 338°
2026-04-18 09:44 40.90474 29.32490 321 ft 16 kts 335°
2026-04-18 09:44 40.90574 29.32421 321 ft 15 kts 324°
2026-04-18 09:44 40.90653 29.32320 321 ft 15 kts 311°
2026-04-18 09:44 40.90696 29.32192 321 ft 15 kts 280°
2026-04-18 09:45 40.90673 29.32055 321 ft 15 kts 248°
2026-04-18 09:45 40.90665 29.32027 321 ft 6 kts 247°
2026-04-18 09:45 40.90641 29.31924 321 ft 12 kts 279°
2026-04-18 09:45 40.90682 29.31871 321 ft 6 kts 329°
2026-04-18 09:46 40.90712 29.31850 321 ft 0 kts 332°